Location: *
(35.2348°S, 91.3916°E)
Time: 23:50:08
(UTC+00:00)

H-2A ROCKET BODY - Pass Details

Date: 23 October 2019
Orbit: 231 x 15465 km, 28.7° (Epoch: 13 November)

Event Time Altitude Azimuth Distance (km) Brightness Sun altitude
Rises 13:45:14 0° 263° (W) 10,561 9.1 -17.8°
Reaches altitude 10° 13:56:51 10° 267° (W) 6,727 7.7 -19.8°
Maximum altitude 14:10:22 36° 326° (NW) 1,724 3.7 -22.2°
Enters shadow 14:12:08 29° 2° (N) 1,554 3.2 -22.5°
